period_start,C,m1,H,J0,J1,J2,J3,J4,J5,JA,JB,JC,JD,JJ,JK,JN,#
2018-01-15 01:45:40,0.00,0.00,0.00,7.98,3.14,3.38,14.43,64.82,1013.92,2123.20,3449.68,3112.49,3581.69,596.92,622.97,0.01,0000 0000 0000 0000 000000
2018-01-15 01:50:48,0.05,0.03,0.00,8.19,3.19,5.15,14.44,65.18,1014.18,2120.58,3401.40,3057.74,3517.62,599.91,625.83,0.06,0000 0000 0000 0000 000000
2018-01-15 01:55:49,0.10,0.05,0.00,8.49,3.24,6.00,14.54,65.51,1014.57,2119.99,3394.36,3052.53,3511.55,600.13,625.62,0.11,0000 0000 0000 0000 000000
2018-01-15 02:00:51,0.18,0.06,0.00,8.72,3.32,6.60,14.42,65.72,1014.66,2119.40,3386.20,3046.26,3504.81,600.10,625.13,0.16,0000 0000 0000 0000 000000
2018-01-15 02:05:52,0.26,0.08,0.00,9.05,3.43,7.09,14.48,65.34,1014.69,2119.01,3379.48,3039.75,3497.91,599.86,624.26,0.21,0000 0000 0000 0000 000000
2018-01-15 02:10:53,0.32,0.10,0.00,9.20,3.59,7.46,14.52,65.16,1014.86,2118.90,3373.15,3034.11,3490.91,599.76,623.88,0.26,0000 0000 0000 0000 000000
2018-01-15 02:15:54,0.29,0.11,0.00,9.60,3.78,7.82,14.54,64.53,1015.10,2118.11,3366.78,3028.49,3484.45,600.18,623.54,0.31,0000 0000 0000 0000 000000
2018-01-15 02:20:56,0.35,0.13,0.00,9.89,4.00,8.22,14.35,63.81,1015.15,2117.75,3359.35,3021.76,3476.57,599.69,622.36,0.36,0000 0000 0000 0000 000000
2018-01-15 02:25:57,0.28,0.15,0.00,10.12,4.24,8.60,14.39,63.07,1015.29,2117.06,3353.24,3016.85,3470.87,599.68,622.00,0.41,0000 0000 0000 0000 000000
2018-01-15 02:30:59,0.38,0.17,0.00,10.47,4.50,9.00,14.40,62.37,1015.55,2116.46,3344.19,3009.47,3462.27,599.88,621.59,0.46,0000 0000 0000 0000 000000
2018-01-15 02:36:00,0.47,0.19,0.00,10.73,4.78,9.37,14.33,61.92,1015.63,2115.77,3333.44,3001.79,3453.92,599.82,620.87,0.51,0000 0000 0000 0000 000000
2018-01-15 02:41:02,0.63,0.21,0.00,11.08,5.07,9.73,14.32,61.31,1015.64,2114.93,3318.55,2993.13,3443.39,599.63,620.13,0.56,0000 0000 0000 0000 000000
2018-01-15 02:46:03,0.96,0.26,0.00,11.40,5.36,10.09,14.30,60.74,1015.66,2114.06,3299.07,2976.49,3424.48,600.02,619.78,0.61,0000 0000 0000 0000 000000
2018-01-15 02:51:04,1.19,0.30,0.00,11.61,5.67,10.43,14.34,60.23,1015.84,2113.14,3277.64,2961.92,3408.50,599.97,619.37,0.66,0000 0000 0000 0000 000000
2018-01-15 02:56:05,0.65,0.36,0.00,11.70,5.97,10.77,14.38,59.71,1016.09,2112.15,3257.21,2946.30,3390.62,600.20,619.56,0.71,0000 0000 0000 0000 000000
2018-01-15 03:01:07,0.32,0.38,0.80,11.85,6.28,11.11,14.34,59.01,1016.13,2111.19,3249.93,2939.16,3382.14,600.25,619.45,0.76,0000 0000 0000 0000 000000
2018-01-15 03:06:08,0.35,0.39,1.00,11.99,6.59,11.47,14.30,58.68,1016.13,2110.35,3243.35,2933.28,3374.82,599.62,618.30,0.81,0000 0000 0000 0000 000000
2018-01-15 03:11:09,-0.13,0.39,1.00,12.13,6.90,11.75,14.24,58.18,1016.14,2109.35,3241.90,2932.69,3374.58,600.06,618.52,0.86,0000 0000 0000 0000 000000
2018-01-15 03:16:10,0.28,0.41,1.00,12.23,7.21,12.02,14.23,57.88,1016.26,2108.31,3236.76,2926.30,3368.63,600.03,618.34,0.91,0000 0000 0000 0000 000000
2018-01-15 03:21:12,0.35,0.42,1.00,12.37,7.50,12.27,14.37,57.71,1016.51,2107.27,3230.41,2919.50,3361.37,600.13,618.23,0.96,0000 0000 0000 0000 000000
2018-01-15 03:26:13,0.23,0.44,1.00,12.47,7.79,12.59,14.36,57.59,1016.62,2106.19,3223.68,2912.81,3353.62,600.01,618.05,1.01,0000 0000 0000 0000 000000
2018-01-15 03:31:14,0.28,0.45,0.20,12.59,8.08,12.83,14.27,57.27,1016.63,2105.18,3218.79,2907.87,3346.92,599.99,617.75,1.06,0000 0000 0000 0000 000000
2018-01-15 03:36:15,0.20,0.46,0.00,12.70,8.37,13.11,14.17,56.91,1016.69,2104.12,3213.53,2903.14,3341.38,599.58,617.16,1.11,0000 0000 0000 0000 000000
2018-01-15 03:41:17,0.21,0.47,0.00,12.81,8.64,13.39,14.25,56.77,1016.93,2103.13,3208.33,2898.54,3335.80,600.04,617.49,1.16,0000 0000 0000 0000 000000
2018-01-15 03:46:18,0.34,0.49,0.00,12.93,8.91,13.70,14.44,56.52,1017.10,2102.17,3202.12,2892.43,3328.97,600.45,617.79,1.22,0000 0000 0000 0000 000000
2018-01-15 03:51:19,0.45,0.51,0.00,13.03,9.17,14.03,14.28,56.42,1017.10,2101.16,3193.14,2884.19,3319.68,600.17,617.26,1.27,0000 0000 0000 0000 000000
2018-01-15 03:56:20,1.42,0.54,0.00,13.13,9.42,14.31,14.33,56.52,1017.10,2100.21,3164.52,2854.08,3287.06,599.86,616.91,1.31,0000 0000 0000 0000 000000
2018-01-15 04:01:21,6.04,0.82,0.83,13.22,9.65,14.54,14.32,59.23,1017.10,2099.95,3090.24,2755.15,3185.16,600.01,616.72,1.37,0000 0000 0000 0000 000000
2018-01-15 04:06:23,-0.07,0.91,1.00,13.28,9.88,14.72,14.31,55.38,1017.11,2098.94,3074.98,2765.67,3190.31,600.28,616.86,1.42,0000 0000 0000 0000 000000
2018-01-15 04:11:24,-0.31,0.90,1.00,13.37,10.11,14.92,14.28,55.06,1017.11,2097.98,3068.55,2765.12,3189.11,599.88,616.31,1.47,0000 0000 0000 0000 000000
2018-01-15 04:16:25,0.08,0.89,1.00,13.43,10.34,15.12,14.29,54.72,1017.12,2097.06,3065.42,2762.46,3185.63,599.89,616.08,1.52,0000 0000 0000 0000 000000
2018-01-15 04:21:27,0.10,0.90,1.00,13.53,10.56,15.29,14.33,54.54,1017.14,2096.12,3062.39,2759.79,3181.97,599.90,616.06,1.57,0000 0000 0000 0000 000000
2018-01-15 04:26:28,0.11,0.90,1.00,13.61,10.77,15.46,14.26,54.48,1017.23,2095.22,3059.45,2757.15,3178.64,599.90,615.81,1.62,0000 0000 0000 0000 000000
2018-01-15 04:31:29,0.08,0.91,1.00,13.69,10.97,15.62,14.34,54.38,1017.34,2094.34,3056.29,2754.47,3175.42,599.94,615.76,1.67,0000 0000 0000 0000 000000
2018-01-15 04:36:31,0.22,0.92,1.00,13.76,11.17,15.68,14.28,54.33,1017.39,2093.52,3052.33,2750.26,3170.43,599.86,615.44,1.72,0000 0000 0000 0000 000000
2018-01-15 04:41:32,0.17,0.93,1.00,13.84,11.36,15.75,14.29,54.14,1017.57,2092.82,3048.74,2747.26,3166.45,600.01,615.56,1.77,0000 0000 0000 0000 000000
2018-01-15 04:46:34,0.11,0.93,1.00,13.94,11.54,15.85,14.31,54.10,1017.53,2091.99,3045.27,2744.93,3162.93,600.21,615.52,1.82,0000 0000 0000 0000 000000
2018-01-15 04:51:35,0.13,0.94,1.00,14.04,11.72,15.98,14.26,53.83,1017.58,2091.11,3041.96,2742.07,3159.51,599.95,615.18,1.87,0000 0000 0000 0000 000000
2018-01-15 04:56:36,0.13,0.95,1.00,14.12,11.89,16.09,14.26,53.79,1017.59,2090.43,3038.43,2738.90,3155.79,599.70,614.76,1.92,0000 0000 0000 0000 000000
2018-01-15 05:01:38,0.14,0.96,0.10,14.15,12.06,16.16,14.31,53.84,1017.59,2089.82,3035.25,2736.25,3152.69,599.91,614.92,1.97,0000 0000 0000 0000 000000
2018-01-15 05:06:39,0.12,0.96,0.00,14.23,12.22,16.34,14.23,53.62,1017.59,2089.03,3031.95,2733.67,3149.71,599.54,614.33,2.02,0000 0000 0000 0000 000000
2018-01-15 05:11:41,0.09,0.97,0.00,14.31,12.37,16.45,14.29,53.70,1017.61,2088.35,3028.97,2731.33,3146.89,599.73,614.42,2.07,0000 0000 0000 0000 000000
2018-01-15 05:16:42,0.14,0.97,0.00,14.37,12.52,16.55,14.22,53.33,1017.61,2087.96,3026.26,2729.20,3144.42,600.30,614.76,2.12,0000 0000 0000 0000 000000
2018-01-15 05:21:43,0.12,0.98,0.00,14.46,12.67,16.66,14.24,53.56,1017.61,2087.17,3023.07,2726.67,3141.51,599.69,613.99,2.17,0000 0000 0000 0000 000000
2018-01-15 05:26:44,0.15,0.99,0.00,14.53,12.82,16.81,14.24,53.33,1017.61,2086.76,3019.46,2723.81,3138.04,600.09,614.28,2.22,0000 0000 0000 0000 000000
2018-01-15 05:31:46,0.12,0.99,0.00,14.61,12.96,16.91,14.21,53.20,1017.62,2086.03,3016.45,2721.31,3135.09,600.19,614.10,2.27,0000 0000 0000 0000 000000
2018-01-15 05:36:47,0.11,1.00,0.00,14.65,13.10,16.99,14.25,53.27,1017.69,2085.59,3013.43,2719.01,3132.49,599.91,613.90,2.32,0000 0000 0000 0000 000000
2018-01-15 05:41:48,0.12,1.01,0.00,14.71,13.23,17.09,14.24,53.13,1017.78,2085.03,3010.36,2716.86,3130.01,600.14,614.00,2.37,0000 0000 0000 0000 000000
2018-01-15 05:46:49,0.10,1.01,0.00,14.78,13.36,17.25,14.21,53.27,1017.87,2084.62,3007.35,2714.66,3127.41,599.94,613.71,2.42,0000 0000 0000 0000 000000
2018-01-15 05:51:51,0.10,1.02,0.00,14.86,13.49,17.34,14.21,52.87,1017.87,2084.03,3005.28,2712.78,3125.25,599.97,613.67,2.47,0000 0000 0000 0000 000000
2018-01-15 05:56:52,0.10,1.02,0.00,14.94,13.62,17.45,14.32,52.78,1018.00,2083.62,3002.45,2710.36,3122.76,599.95,613.55,2.52,0000 0000 0000 0000 000000
2018-01-15 06:01:53,0.17,1.03,0.00,15.02,13.74,17.55,14.15,52.75,1018.08,2083.02,2999.04,2707.96,3119.84,599.79,613.29,2.57,0000 0000 0000 0000 000000
2018-01-15 06:06:55,0.10,1.04,0.00,15.06,13.85,17.63,14.19,52.54,1018.08,2082.65,2996.13,2705.85,3117.11,599.70,613.09,2.62,0000 0000 0000 0000 000000
2018-01-15 06:11:56,0.12,1.04,0.00,15.13,13.97,17.73,14.28,52.51,1018.08,2082.02,2993.40,2703.66,3114.42,600.02,613.15,2.67,0000 0000 0000 0000 000000
2018-01-15 06:16:58,0.14,1.05,0.00,15.18,14.08,17.80,14.34,52.40,1018.08,2081.77,2990.62,2701.24,3111.53,600.03,613.11,2.72,0000 0000 0000 0000 000000
2018-01-15 06:21:59,0.07,1.05,0.00,15.23,14.19,17.88,14.21,52.27,1018.07,2081.05,2988.44,2699.33,3109.52,600.14,613.14,2.77,0000 0000 0000 0000 000000
2018-01-15 06:27:00,0.12,1.06,0.00,15.29,14.29,18.00,14.34,52.18,1018.07,2080.90,2986.09,2697.54,3107.38,600.22,613.07,2.82,0000 0000 0000 0000 000000
2018-01-15 06:32:01,0.09,1.06,0.00,15.33,14.39,18.08,14.15,52.12,1018.08,2080.15,2983.42,2695.47,3104.99,599.73,612.56,2.87,0000 0000 0000 0000 000000
2018-01-15 06:37:02,0.17,1.07,0.00,15.39,14.49,18.18,14.24,52.08,1018.08,2079.97,2979.92,2693.16,3102.00,599.95,612.49,2.92,0000 0000 0000 0000 000000
2018-01-15 06:42:04,0.07,1.08,0.00,15.45,14.59,18.25,14.16,51.99,1018.08,2079.48,2977.26,2691.19,3099.75,600.00,612.50,2.97,0000 0000 0000 0000 000000
2018-01-15 06:47:05,0.12,1.08,0.00,15.51,14.68,18.32,14.16,51.96,1018.08,2079.01,2974.86,2689.43,3097.63,599.80,612.18,3.02,0000 0000 0000 0000 000000
2018-01-15 06:52:06,0.12,1.09,0.00,15.56,14.78,18.40,14.23,51.98,1018.08,2078.84,2972.16,2687.49,3095.45,600.02,612.34,3.07,0000 0000 0000 0000 000000
2018-01-15 06:57:08,0.07,1.09,0.00,15.64,14.87,18.50,14.15,51.99,1018.13,2078.12,2969.25,2685.75,3093.35,599.60,611.68,3.12,0000 0000 0000 0000 000000
2018-01-15 07:02:09,0.18,1.10,0.00,15.72,14.96,18.57,14.24,51.88,1018.36,2078.00,2965.96,2683.44,3090.86,600.11,612.22,3.17,0000 0000 0000 0000 000000
2018-01-15 07:07:10,0.15,1.11,0.00,15.77,15.05,18.65,14.21,51.90,1018.42,2077.93,2963.13,2681.32,3088.53,599.81,611.88,3.22,0000 0000 0000 0000 000000
2018-01-15 07:12:11,0.07,1.11,0.00,15.81,15.13,18.70,14.19,51.73,1018.28,2077.23,2960.57,2679.42,3086.24,599.76,611.68,3.27,0000 0000 0000 0000 000000
2018-01-15 07:17:13,0.14,1.12,0.00,15.83,15.22,18.81,14.17,51.67,1018.40,2077.00,2957.96,2677.35,3083.82,599.77,611.73,3.32,0000 0000 0000 0000 000000
2018-01-15 07:22:14,0.13,1.13,0.00,15.88,15.30,18.89,14.25,51.57,1018.48,2076.89,2955.33,2675.43,3081.50,600.11,611.94,3.37,0000 0000 0000 0000 000000
2018-01-15 07:27:15,0.07,1.13,0.00,15.97,15.38,18.95,14.11,51.48,1018.48,2076.22,2952.94,2673.57,3079.39,599.85,611.48,3.42,0000 0000 0000 0000 000000
2018-01-15 07:32:17,0.14,1.14,0.00,16.00,15.46,19.03,14.17,51.42,1018.55,2076.00,2950.19,2671.59,3077.05,599.58,611.10,3.47,0000 0000 0000 0000 000000
2018-01-15 07:37:18,0.19,1.15,0.00,16.05,15.54,19.09,14.29,51.42,1018.56,2075.97,2946.99,2668.88,3074.15,599.77,611.39,3.53,0000 0000 0000 0000 000000
2018-01-15 07:42:19,0.07,1.15,0.00,16.10,15.62,19.14,14.21,51.21,1018.57,2075.42,2944.58,2666.91,3071.68,599.79,611.20,3.58,0000 0000 0000 0000 000000
2018-01-15 07:47:20,0.13,1.16,0.00,16.17,15.70,19.22,14.18,51.16,1018.57,2075.01,2942.14,2664.80,3069.29,600.06,611.34,3.63,0000 0000 0000 0000 000000
2018-01-15 07:52:22,0.12,1.17,0.00,16.22,15.78,19.28,14.21,51.23,1018.57,2074.95,2939.72,2663.02,3067.39,599.97,611.07,3.68,0000 0000 0000 0000 000000
2018-01-15 07:57:23,0.05,1.17,0.00,16.25,15.85,19.34,14.25,51.04,1018.58,2074.40,2937.55,2661.42,3065.57,600.11,611.14,3.73,0000 0000 0000 0000 000000
2018-01-15 08:02:25,0.12,1.17,0.00,16.31,15.93,19.42,14.19,50.95,1018.63,2074.01,2935.22,2659.65,3063.56,599.74,610.83,3.78,0000 0000 0000 0000 000000
2018-01-15 08:07:26,0.13,1.18,0.00,16.35,16.00,19.47,14.21,51.08,1018.79,2073.98,2932.72,2657.90,3061.51,599.89,610.95,3.83,0000 0000 0000 0000 000000
2018-01-15 08:12:28,0.12,1.19,0.00,16.40,16.07,19.54,14.26,51.24,1019.02,2073.72,2929.92,2656.02,3059.12,600.04,611.18,3.88,0000 0000 0000 0000 000000
2018-01-15 08:17:29,0.09,1.19,0.00,16.44,16.15,19.62,14.22,51.10,1019.01,2073.08,2927.49,2654.16,3056.94,600.10,611.07,3.93,0000 0000 0000 0000 000000
2018-01-15 08:22:30,0.16,1.20,0.00,16.50,16.22,19.68,14.19,50.93,1018.87,2073.00,2924.79,2652.09,3054.48,600.28,611.04,3.98,0000 0000 0000 0000 000000
2018-01-15 08:27:32,0.11,1.21,0.00,16.54,16.28,19.74,14.18,50.91,1018.92,2072.95,2922.41,2650.33,3052.45,599.94,610.56,4.03,0000 0000 0000 0000 000000
2018-01-15 08:32:33,0.10,1.21,0.00,16.61,16.35,19.80,14.16,50.81,1019.03,2072.35,2919.63,2648.31,3050.14,599.95,610.57,4.08,0000 0000 0000 0000 000000
2018-01-15 08:37:34,0.14,1.22,0.00,16.64,16.42,19.86,14.25,50.73,1019.01,2072.02,2916.85,2646.17,3047.56,600.13,610.68,4.13,0000 0000 0000 0000 000000
2018-01-15 08:42:35,0.17,1.23,0.00,16.69,16.48,19.92,14.18,50.52,1018.80,2071.98,2914.12,2644.13,3044.97,600.09,610.45,4.18,0000 0000 0000 0000 000000
2018-01-15 08:47:36,0.09,1.23,0.00,16.74,16.55,19.98,14.07,50.49,1018.72,2071.64,2911.35,2642.12,3042.62,599.50,609.65,4.23,0000 0000 0000 0000 000000
2018-01-15 08:52:37,0.10,1.24,0.00,16.80,16.61,20.04,14.14,50.42,1018.96,2071.06,2908.98,2640.39,3040.36,599.80,609.99,4.28,0000 0000 0000 0000 000000
2018-01-15 08:57:38,0.15,1.24,0.00,16.83,16.67,20.11,14.16,50.27,1019.03,2071.00,2906.43,2638.53,3038.00,600.23,610.37,4.33,0000 0000 0000 0000 000000
2018-01-15 09:02:39,0.14,1.25,0.00,16.87,16.72,20.16,14.19,50.13,1019.06,2070.91,2903.94,2636.55,3035.70,599.98,610.06,4.38,0000 0000 0000 0000 000000
2018-01-15 09:07:41,0.07,1.26,0.00,16.91,16.78,20.21,14.25,50.31,1019.06,2070.27,2901.39,2634.67,3033.55,600.15,610.27,4.43,0000 0000 0000 0000 000000
2018-01-15 09:12:42,0.15,1.26,0.00,16.95,16.84,20.27,14.17,50.18,1019.07,2070.02,2898.72,2632.52,3031.18,600.29,610.27,4.48,0000 0000 0000 0000 000000
2018-01-15 09:17:43,0.14,1.27,0.00,17.01,16.89,20.33,14.20,50.16,1019.07,2070.00,2896.33,2630.65,3028.99,600.19,609.95,4.53,0000 0000 0000 0000 000000
2018-01-15 09:22:44,0.13,1.28,0.00,17.04,16.95,20.38,14.14,50.03,1019.06,2069.98,2893.80,2628.89,3027.00,599.92,609.74,4.58,0000 0000 0000 0000 000000
2018-01-15 09:27:46,0.08,1.28,0.00,17.10,16.99,20.44,14.21,50.01,1019.06,2069.57,2891.27,2627.22,3024.98,599.96,609.66,4.63,0000 0000 0000 0000 000000
2018-01-15 09:32:48,0.12,1.29,0.00,17.13,17.05,20.49,14.14,49.94,1019.06,2069.07,2888.39,2625.20,3022.67,599.67,609.15,4.68,0000 0000 0000 0000 000000
2018-01-15 09:37:49,0.16,1.29,0.00,17.19,17.10,20.53,14.09,49.84,1019.11,2069.00,2885.80,2623.27,3020.33,599.75,609.29,4.73,0000 0000 0000 0000 000000
2018-01-15 09:42:50,0.21,1.30,0.00,17.23,17.15,20.59,14.15,49.72,1019.31,2068.99,2882.73,2620.62,3016.93,599.87,609.35,4.78,0000 0000 0000 0000 000000
2018-01-15 09:47:51,0.11,1.31,0.00,17.28,17.21,20.64,14.20,49.80,1019.43,2068.75,2879.92,2618.43,3014.38,599.86,609.59,4.83,0000 0000 0000 0000 000000
2018-01-15 09:52:53,0.09,1.32,0.00,17.32,17.26,20.69,14.17,49.74,1019.50,2068.18,2877.37,2616.60,3012.27,599.96,609.40,4.88,0000 0000 0000 0000 000000
2018-01-15 09:57:54,0.16,1.32,0.00,17.37,17.31,20.74,14.12,49.53,1019.51,2068.01,2874.69,2614.64,3010.01,599.95,609.20,4.93,0000 0000 0000 0000 000000
2018-01-15 10:02:55,0.16,1.33,0.00,17.39,17.36,20.80,14.17,49.59,1019.53,2067.99,2871.93,2612.59,3007.70,599.85,609.10,4.98,0000 0000 0000 0000 000000
2018-01-15 10:07:57,0.14,1.34,0.00,17.42,17.41,20.83,14.13,49.35,1019.51,2067.96,2869.19,2610.66,3005.50,599.78,609.02,5.03,0000 0000 0000 0000 000000
2018-01-15 10:12:58,0.06,1.35,0.00,17.45,17.46,20.88,14.17,49.32,1019.49,2067.52,2867.10,2609.02,3003.54,599.79,608.74,5.08,0000 0000 0000 0000 000000
2018-01-15 10:17:59,0.13,1.35,0.00,17.48,17.51,20.92,14.07,49.25,1019.51,2067.03,2864.59,2607.15,3001.34,599.93,609.02,5.13,0000 0000 0000 0000 000000
2018-01-15 10:23:00,0.16,1.36,0.00,17.53,17.55,20.98,14.10,49.24,1019.53,2067.00,2861.83,2604.97,2998.88,600.19,609.19,5.18,0000 0000 0000 0000 000000
2018-01-15 10:28:01,0.16,1.37,0.00,17.56,17.60,21.00,14.07,49.10,1019.53,2066.98,2858.99,2602.89,2996.34,599.58,608.50,5.23,0000 0000 0000 0000 000000
2018-01-15 10:33:02,0.15,1.38,0.00,17.59,17.65,21.06,14.13,48.98,1019.55,2066.81,2856.07,2600.71,2993.74,600.08,608.79,5.28,0000 0000 0000 0000 000000
2018-01-15 10:38:03,0.14,1.38,0.00,17.63,17.69,21.11,14.24,49.05,1019.56,2066.27,2852.61,2598.38,2991.09,600.47,609.18,5.33,0000 0000 0000 0000 000000
2018-01-15 10:43:05,0.21,1.39,0.00,17.68,17.74,21.14,14.07,48.85,1019.59,2066.03,2848.63,2595.72,2988.13,599.92,608.62,5.38,0000 0000 0000 0000 000000
2018-01-15 10:48:06,0.20,1.40,0.00,17.70,17.78,21.19,14.20,48.98,1019.68,2066.00,2844.84,2593.13,2985.23,600.06,608.79,5.43,0000 0000 0000 0000 000000
2018-01-15 10:53:07,0.23,1.42,0.00,17.77,17.83,21.23,14.11,48.80,1019.63,2065.99,2840.77,2590.35,2982.07,599.92,608.44,5.48,0000 0000 0000 0000 000000
2018-01-15 10:58:09,0.27,1.43,0.00,17.79,17.87,21.29,14.15,48.75,1019.60,2065.96,2835.83,2587.13,2978.38,600.08,608.55,5.53,0000 0000 0000 0000 000000
2018-01-15 11:03:10,0.19,1.44,0.00,17.81,17.92,21.33,14.11,48.71,1019.58,2065.55,2831.31,2584.08,2974.75,600.05,608.47,5.58,0000 0000 0000 0000 000000
2018-01-15 11:08:11,0.18,1.45,0.00,17.84,17.96,21.38,14.14,48.56,1019.56,2065.06,2827.65,2581.36,2971.52,600.47,608.68,5.63,0000 0000 0000 0000 000000
2018-01-15 11:13:13,0.19,1.46,0.00,17.90,18.00,21.42,14.10,48.40,1019.55,2065.00,2824.39,2578.83,2968.57,599.68,608.06,5.68,0000 0000 0000 0000 000000
2018-01-15 11:18:14,0.19,1.47,0.00,17.96,18.04,21.45,14.10,48.47,1019.56,2064.99,2821.06,2576.36,2965.83,599.75,607.85,5.73,0000 0000 0000 0000 000000
2018-01-15 11:23:15,0.22,1.48,0.00,18.00,18.08,21.49,14.07,48.42,1019.63,2064.92,2817.24,2573.93,2962.82,599.90,607.97,5.78,0000 0000 0000 0000 000000
2018-01-15 11:28:16,0.22,1.49,0.00,18.05,18.13,21.53,14.08,48.38,1019.80,2064.50,2812.62,2570.72,2959.16,599.90,608.00,5.83,0000 0000 0000 0000 000000
2018-01-15 11:33:17,0.30,1.50,0.00,18.08,18.17,21.58,14.05,48.41,1019.88,2064.09,2806.99,2566.78,2954.80,599.95,608.00,5.88,0000 0000 0000 0000 000000
2018-01-15 11:38:18,0.36,1.52,0.00,18.07,18.21,21.61,14.12,48.20,1019.78,2064.01,2800.63,2562.41,2949.90,600.21,608.27,5.94,0000 0000 0000 0000 000000
2018-01-15 11:43:19,0.45,1.54,0.00,18.10,18.25,21.67,14.16,48.21,1019.98,2064.00,2793.22,2557.26,2944.00,600.22,608.29,5.99,0000 0000 0000 0000 000000
2018-01-15 11:48:21,0.46,1.57,0.00,18.16,18.29,21.70,14.12,48.23,1020.01,2063.99,2785.49,2551.96,2937.95,599.70,607.74,6.04,0000 0000 0000 0000 000000
2018-01-15 11:53:22,0.41,1.59,0.00,18.18,18.33,21.75,14.11,48.17,1020.00,2063.89,2777.74,2546.66,2932.01,600.11,608.29,6.09,0000 0000 0000 0000 000000
2018-01-15 11:58:23,0.32,1.61,0.00,18.16,18.38,21.78,14.13,48.10,1020.01,2063.33,2771.06,2541.97,2926.78,600.56,608.36,6.14,0000 0000 0000 0000 000000
2018-01-15 12:03:24,0.32,1.62,0.00,18.21,18.41,21.83,14.11,48.08,1019.99,2063.02,2765.48,2537.76,2922.08,600.07,608.03,6.19,0000 0000 0000 0000 000000
2018-01-15 12:08:26,0.32,1.64,0.00,18.23,18.45,21.86,14.08,47.97,1019.96,2063.00,2759.86,2533.86,2917.58,600.19,608.11,6.24,0000 0000 0000 0000 000000
2018-01-15 12:13:27,0.28,1.65,0.00,18.27,18.49,21.90,14.07,47.99,1019.98,2062.99,2755.11,2530.49,2913.71,599.68,607.46,6.29,0000 0000 0000 0000 000000
2018-01-15 12:18:28,0.25,1.67,0.00,18.28,18.53,21.94,14.05,47.92,1020.03,2062.81,2750.47,2527.07,2909.78,600.15,607.81,6.34,0000 0000 0000 0000 000000
2018-01-15 12:23:29,0.24,1.68,0.00,18.28,18.56,21.96,14.07,47.80,1020.03,2062.22,2745.63,2523.62,2905.84,599.74,607.56,6.39,0000 0000 0000 0000 000000
2018-01-15 12:28:31,0.30,1.69,0.00,18.33,18.58,22.01,14.14,47.83,1020.03,2062.04,2740.37,2519.92,2901.68,600.20,607.82,6.44,0000 0000 0000 0000 000000
2018-01-15 12:33:32,0.40,1.71,0.00,18.37,18.62,22.03,14.15,47.87,1020.01,2062.00,2734.03,2515.54,2896.88,600.53,608.10,6.49,0000 0000 0000 0000 000000
2018-01-15 12:38:33,0.33,1.73,0.00,18.38,18.65,22.08,14.06,47.70,1020.00,2061.99,2728.23,2511.51,2892.24,599.80,607.35,6.54,0000 0000 0000 0000 000000
2018-01-15 12:43:35,0.57,1.75,0.00,18.39,18.68,22.09,14.07,47.71,1020.02,2061.99,2720.77,2505.96,2885.71,599.80,607.35,6.59,0000 0000 0000 0000 000000
2018-01-15 12:48:36,0.37,1.78,0.00,18.45,18.71,22.13,14.04,47.62,1020.03,2061.97,2713.33,2500.37,2879.43,599.75,607.06,6.64,0000 0000 0000 0000 000000
2018-01-15 12:53:38,0.33,1.79,0.00,18.45,18.75,22.17,14.14,47.76,1020.03,2061.71,2707.42,2496.26,2875.00,600.26,607.66,6.69,0000 0000 0000 0000 000000
2018-01-15 12:58:39,0.28,1.81,0.00,18.45,18.78,22.20,14.08,47.77,1020.03,2061.15,2701.63,2492.32,2870.44,600.10,607.51,6.74,0000 0000 0000 0000 000000
2018-01-15 13:03:41,0.34,1.82,0.00,18.50,18.81,22.24,14.06,47.67,1020.03,2061.04,2696.06,2488.47,2865.91,599.76,607.05,6.79,0000 0000 0000 0000 000000
2018-01-15 13:08:42,0.36,1.84,0.00,18.51,18.83,22.25,14.12,47.54,1020.03,2061.00,2690.23,2484.42,2861.23,600.21,607.50,6.84,0000 0000 0000 0000 000000
2018-01-15 13:13:43,0.37,1.86,0.00,18.49,18.86,22.28,14.10,47.63,1020.03,2060.99,2684.13,2480.17,2856.40,599.76,607.08,6.89,0000 0000 0000 0000 000000
2018-01-15 13:18:44,0.41,1.88,0.00,18.57,18.89,22.32,14.09,47.64,1020.03,2060.98,2677.43,2475.67,2851.38,599.67,606.79,6.94,0000 0000 0000 0000 000000
2018-01-15 13:23:46,0.40,1.90,0.00,18.57,18.92,22.35,14.00,47.50,1020.03,2060.93,2670.67,2471.12,2846.31,599.90,606.91,6.99,0000 0000 0000 0000 000000
2018-01-15 13:28:47,0.40,1.92,0.00,18.58,18.94,22.37,14.03,47.49,1020.04,2060.74,2663.92,2466.46,2841.11,599.63,606.73,7.04,0000 0000 0000 0000 000000
2018-01-15 13:33:48,0.45,1.94,0.00,18.61,18.98,22.40,14.10,47.57,1020.04,2060.25,2656.07,2461.08,2835.16,600.27,607.42,7.09,0000 0000 0000 0000 000000
2018-01-15 13:38:49,0.62,1.97,0.00,18.61,19.00,22.43,14.00,47.48,1020.04,2060.05,2646.21,2454.25,2827.52,599.68,606.71,7.14,0000 0000 0000 0000 000000
2018-01-15 13:43:51,0.63,2.00,0.00,18.65,19.03,22.46,14.10,47.52,1020.04,2060.01,2636.05,2447.16,2819.57,599.98,606.90,7.19,0000 0000 0000 0000 000000
2018-01-15 13:48:52,0.63,2.04,0.00,18.71,19.06,22.49,14.08,47.44,1020.04,2060.00,2626.12,2440.17,2811.70,600.06,606.91,7.24,0000 0000 0000 0000 000000
2018-01-15 13:53:53,0.64,2.07,0.00,18.71,19.09,22.51,14.11,47.44,1020.04,2059.99,2616.16,2433.16,2803.67,599.79,606.61,7.29,0000 0000 0000 0000 000000
2018-01-15 13:58:54,0.63,2.10,0.33,18.72,19.12,22.54,14.03,47.52,1020.04,2059.98,2606.04,2426.38,2795.79,600.02,606.82,7.34,0000 0000 0000 0000 000000
2018-01-15 14:03:56,0.65,2.13,1.00,18.76,19.15,22.58,13.99,47.48,1020.04,2059.98,2595.84,2419.32,2787.86,599.82,606.51,7.39,0000 0000 0000 0000 000000
2018-01-15 14:08:57,0.62,2.16,1.00,18.77,19.18,22.59,14.18,47.48,1020.04,2059.76,2585.83,2412.27,2779.90,599.85,606.70,7.44,0000 0000 0000 0000 000000
2018-01-15 14:13:58,0.57,2.19,1.00,18.79,19.20,22.63,14.07,47.45,1020.04,2059.18,2576.08,2405.43,2772.08,599.86,606.47,7.49,0000 0000 0000 0000 000000
2018-01-15 14:19:00,0.60,2.22,1.00,18.81,19.23,22.64,14.07,47.45,1020.04,2059.04,2566.62,2398.81,2764.68,600.20,606.83,7.54,0000 0000 0000 0000 000000
2018-01-15 14:24:01,0.56,2.25,1.00,18.82,19.26,22.68,14.10,47.38,1020.04,2059.01,2557.88,2392.47,2757.54,600.25,606.84,7.59,0000 0000 0000 0000 000000
2018-01-15 14:29:02,0.52,2.28,1.00,18.85,19.28,22.70,14.02,47.24,1020.04,2058.99,2550.16,2386.84,2751.14,599.78,606.40,7.64,0000 0000 0000 0000 000000
2018-01-15 14:34:03,0.52,2.31,1.00,18.86,19.31,22.72,14.05,47.17,1020.04,2058.96,2542.31,2381.21,2744.67,599.79,606.26,7.69,0000 0000 0000 0000 000000
2018-01-15 14:39:05,0.48,2.33,1.00,18.86,19.33,22.78,14.00,47.13,1020.04,2058.87,2534.70,2375.86,2738.61,599.86,606.39,7.74,0000 0000 0000 0000 000000
2018-01-15 14:44:06,0.36,2.35,1.00,18.91,19.35,22.80,14.09,47.17,1020.04,2058.46,2528.22,2371.37,2733.50,599.94,606.34,7.79,0000 0000 0000 0000 000000